This is the latest recevied weather packets stored in our database for station/object KF7PIZ. If no packets are shown the sender has not sent any weather packets the latest 1 day(s).
| Time | Temp. | Humidity | Pressure | Rain* | Wind** | Luminosity | Snow |
|---|---|---|---|---|---|---|---|
| 1777991085 | 8.33° C | 99% | 1013 hPa | 0 mm | 0 m/s | 26 W/m² | - |
| 1777990782 | 8.33° C | 99% | 1013.2 hPa | 0 mm | 0 m/s | 35 W/m² | - |
| 1777990479 | 8.33° C | 99% | 1013 hPa | 0 mm | 0 m/s | 29 W/m² | - |
| 1777990176 | 8.33° C | 99% | 1012.9 hPa | 0 mm | 0 m/s | 22 W/m² | - |
| 1777989873 | 7.78° C | 99% | 1013 hPa | 0 mm | 0 m/s | 17 W/m² | - |
| 1777989571 | 7.78° C | 99% | 1012.6 hPa | 0 mm | 0 m/s | 19 W/m² | - |
| 1777989266 | 7.78° C | 99% | 1012.8 hPa | 0 mm | 0 m/s | 16 W/m² | - |
| 1777988962 | 7.78° C | 99% | 1012.6 hPa | 0 mm | 0 m/s | 11 W/m² | - |
| 1777988659 | 7.78° C | 99% | 1012.6 hPa | 0 mm | 0 m/s | 8 W/m² | - |
| 1777988355 | 7.78° C | 99% | 1012.6 hPa | 0 mm | 0 m/s | 4 W/m² | - |
| 1777988053 | 7.78° C | 99% | 1012.6 hPa | 0 mm | 0 m/s | 3 W/m² | - |
| 1777987748 | 7.78° C | 99% | 1012.5 hPa | 0 mm | 0 m/s | 3 W/m² | - |
| 1777987446 | 7.78° C | 99% | 1012.4 hPa | 0 mm | 0 m/s | 3 W/m² | - |
| 1777987143 | 7.78° C | 99% | 1012.3 hPa | 0 mm | 0 m/s | 2 W/m² | - |
| 1777986840 | 7.22° C | 99% | 1012.4 hPa | 0 mm | 0 m/s | 1 W/m² | - |
| 1777986537 | 7.22° C | 99% | 1012.4 hPa | 0 mm | 0 m/s | 0 W/m² | - |
| 1777986235 | 7.22° C | 99% | 1012.1 hPa | 0 mm | 0 m/s | 0 W/m² | - |
| 1777985932 | 7.22° C | 99% | 1012.3 hPa | 0 mm | 0 m/s | 0 W/m² | - |
| 1777985630 | 7.22° C | 99% | 1012.1 hPa | 0 mm | 0 m/s | 0 W/m² | - |
| 1777985326 | 7.22° C | 99% | 1012.1 hPa | 0 mm | 0 m/s | 0 W/m² | - |
| 1777985023 | 7.22° C | 99% | 1012.2 hPa | 0 mm | 0 m/s | 0 W/m² | - |
| 1777984719 | 7.22° C | 99% | 1012.3 hPa | 0 mm | 0 m/s | 0 W/m² | - |
| 1777984416 | 7.22° C | 99% | 1012.2 hPa | 0 mm | 0 m/s | 0 W/m² | - |
| 1777984112 | 7.22° C | 99% | 1012.1 hPa | 0 mm | 0 m/s | 0 W/m² | - |
| 1777983809 | 7.22° C | 99% | 1012 hPa | 0 mm | 0 m/s | 0 W/m² | - |
* Rain latest hour (hover to see other rain measurements)
** Current wind speed in m/s (hover to see current wind gust speed)